When you browse on this site, cookies collect data to enhance your experience and personalize the content and advertising you see.
Visit our Privacy Policy to learn more. By continuing to use the site, you agree to this use of cookies and data.
EN

Hourly Weather Konstantyna

Today, 5 July, Sunday

Time Temperature Precipitation Wind Pressure Humidity
00:00 +17°C° 0 mm 0 mps 713 mmHg 72%
01:00 +16°C° 0 mm 0 mps 713 mmHg 73%
02:00 +16°C° 0 mm 0 mps 712 mmHg 75%
03:00 +15°C° 0 mm 0 mps 712 mmHg 77%
04:00 +16°C° 0 mm 0 mps 712 mmHg 74%
05:00 +19°C° 0 mm 1 mps 712 mmHg 71%
06:00 +20°C° 0 mm 1 mps 713 mmHg 66%
07:00 +22°C° 0 mm 1 mps 713 mmHg 56%
08:00 +23°C° 0 mm 2 mps 713 mmHg 47%
09:00 +25°C° 0 mm 2 mps 713 mmHg 37%
10:00 +27°C° 0 mm 3 mps 713 mmHg 33%
11:00 +28°C° 0 mm 3 mps 714 mmHg 28%
12:00 +30°C° 0 mm 4 mps 714 mmHg 24%
13:00 +30°C° 0 mm 4 mps 713 mmHg 26%
14:00 +30°C° 0 mm 5 mps 713 mmHg 27%
15:00 +30°C° 0 mm 5 mps 712 mmHg 29%
16:00 +29°C° 0 mm 5 mps 712 mmHg 34%
17:00 +27°C° 0 mm 4 mps 711 mmHg 39%
18:00 +26°C° 0 mm 4 mps 711 mmHg 45%
19:00 +24°C° 0 mm 3 mps 711 mmHg 53%
20:00 +21°C° 0 mm 2 mps 711 mmHg 61%
21:00 +20°C° 0 mm 1 mps 711 mmHg 69%
22:00 +20°C° 0 mm 1 mps 711 mmHg 69%
23:00 +19°C° 0 mm 1 mps 711 mmHg 70%

Tomorrow, 6 July, Monday

Time Temperature Precipitation Wind Pressure Humidity
00:00 +17°C° 0 mm 0 mps 710 mmHg 71%
01:00 +17°C° 0 mm 0 mps 710 mmHg 70%
02:00 +16°C° 0 mm 0 mps 709 mmHg 68%
03:00 +16°C° 0 mm 0 mps 709 mmHg 66%
04:00 +19°C° 0 mm 1 mps 709 mmHg 60%
05:00 +20°C° 0 mm 1 mps 709 mmHg 54%
06:00 +21°C° 0 mm 1 mps 710 mmHg 48%
07:00 +23°C° 0 mm 2 mps 710 mmHg 45%
08:00 +25°C° 0 mm 3 mps 710 mmHg 42%
09:00 +27°C° 0 mm 4 mps 711 mmHg 39%
10:00 +28°C° 0 mm 5 mps 711 mmHg 38%
11:00 +29°C° 0 mm 6 mps 711 mmHg 37%
12:00 +32°C° 0 mm 7 mps 710 mmHg 35%
13:00 +30°C° 0 mm 7 mps 710 mmHg 36%
14:00 +30°C° 0 mm 7 mps 710 mmHg 37%
15:00 +30°C° 0 mm 7 mps 710 mmHg 38%
16:00 +29°C° 0 mm 6 mps 710 mmHg 43%
17:00 +27°C° 0 mm 5 mps 710 mmHg 49%
18:00 +26°C° 0 mm 5 mps 709 mmHg 54%
19:00 +25°C° 0 mm 4 mps 710 mmHg 62%
20:00 +22°C° 0 mm 3 mps 710 mmHg 70%
21:00 +21°C° 0 mm 2 mps 710 mmHg 78%
22:00 +20°C° 0 mm 2 mps 710 mmHg 79%
23:00 +20°C° 0 mm 2 mps 710 mmHg 81%

Day after tomorrow, 7 July, Tuesday

Time Temperature Precipitation Wind Pressure Humidity
00:00 +19°C° 0 mm 2 mps 709 mmHg 82%
01:00 +20°C° 0 mm 1 mps 709 mmHg 82%
02:00 +19°C° 0 mm 1 mps 709 mmHg 82%
03:00 +19°C° 0 mm 1 mps 709 mmHg 81%
04:00 +20°C° 0 mm 1 mps 709 mmHg 77%
05:00 +20°C° 0 mm 1 mps 709 mmHg 74%
06:00 +20°C° 0 mm 2 mps 709 mmHg 70%
07:00 +23°C° 0 mm 2 mps 710 mmHg 62%
08:00 +25°C° 0 mm 3 mps 710 mmHg 53%
09:00 +26°C° 0 mm 3 mps 711 mmHg 45%
10:00 +28°C° 0 mm 3 mps 711 mmHg 41%
11:00 +29°C° 0 mm 4 mps 711 mmHg 38%
12:00 +32°C° 0 mm 4 mps 711 mmHg 34%
13:00 +32°C° 0 mm 4 mps 711 mmHg 34%
14:00 +32°C° 0 mm 5 mps 711 mmHg 33%
15:00 +32°C° 0 mm 5 mps 710 mmHg 33%
16:00 +30°C° 0 mm 5 mps 710 mmHg 37%
17:00 +28°C° 0 mm 4 mps 710 mmHg 40%
18:00 +27°C° 0 mm 3 mps 710 mmHg 44%
19:00 +25°C° 0 mm 3 mps 710 mmHg 51%
20:00 +23°C° 0 mm 2 mps 710 mmHg 58%
21:00 +22°C° 0 mm 1 mps 710 mmHg 65%
22:00 +19°C° 0 mm 0 mps 710 mmHg 66%
23:00 +19°C° 0 mm 0 mps 710 mmHg 67%

8 July, Wednesday

Time Temperature Precipitation Wind Pressure Humidity
00:00 +18°C° 0 mm 0 mps 710 mmHg 68%
01:00 +18°C° 0 mm 0 mps 709 mmHg 68%
02:00 +18°C° 0 mm 0 mps 709 mmHg 69%
03:00 +17°C° 0 mm 0 mps 709 mmHg 69%
04:00 +18°C° 0 mm 0 mps 709 mmHg 65%
05:00 +21°C° 0 mm 1 mps 710 mmHg 61%
06:00 +22°C° 0 mm 1 mps 710 mmHg 57%
07:00 +24°C° 0 mm 1 mps 711 mmHg 49%
08:00 +26°C° 0 mm 2 mps 711 mmHg 41%
09:00 +28°C° 0 mm 2 mps 711 mmHg 33%
10:00 +30°C° 0 mm 3 mps 712 mmHg 29%
11:00 +32°C° 0 mm 4 mps 712 mmHg 24%
12:00 +34°C° 0 mm 4 mps 712 mmHg 20%
13:00 +34°C° 0 mm 5 mps 711 mmHg 22%
14:00 +33°C° 0 mm 5 mps 711 mmHg 25%
15:00 +33°C° 0 mm 5 mps 711 mmHg 28%
16:00 +30°C° 0 mm 5 mps 711 mmHg 34%
17:00 +29°C° 0 mm 4 mps 711 mmHg 41%
18:00 +27°C° 0 mm 4 mps 710 mmHg 48%
19:00 +25°C° 0 mm 3 mps 711 mmHg 56%
20:00 +24°C° 0 mm 2 mps 711 mmHg 64%
21:00 +22°C° 0 mm 1 mps 711 mmHg 72%
22:00 +22°C° 0 mm 1 mps 711 mmHg 73%
23:00 +19°C° 0 mm 0 mps 711 mmHg 74%

9 July, Thursday

Time Temperature Precipitation Wind Pressure Humidity
00:00 +19°C° 0 mm 0 mps 711 mmHg 75%
01:00 +18°C° 0 mm 0 mps 711 mmHg 74%
02:00 +18°C° 0 mm 0 mps 710 mmHg 74%
03:00 +17°C° 0 mm 0 mps 710 mmHg 74%
04:00 +18°C° 0 mm 0 mps 710 mmHg 68%
05:00 +19°C° 0 mm 0 mps 711 mmHg 61%
06:00 +21°C° 0 mm 0 mps 711 mmHg 55%
07:00 +23°C° 0 mm 0 mps 711 mmHg 44%
08:00 +27°C° 0 mm 1 mps 712 mmHg 34%
09:00 +30°C° 0 mm 1 mps 712 mmHg 24%
10:00 +32°C° 0 mm 1 mps 712 mmHg 21%
11:00 +33°C° 0 mm 1 mps 712 mmHg 18%
12:00 +35°C° 0 mm 1 mps 712 mmHg 15%
13:00 +36°C° 0 mm 2 mps 712 mmHg 17%
14:00 +36°C° 0 mm 4 mps 711 mmHg 18%
15:00 +36°C° 0 mm 5 mps 711 mmHg 19%
16:00 +34°C° 0 mm 4 mps 711 mmHg 25%
17:00 +32°C° 0 mm 4 mps 711 mmHg 32%
18:00 +29°C° 0 mm 4 mps 710 mmHg 39%
19:00 +27°C° 0 mm 3 mps 710 mmHg 47%
20:00 +25°C° 0 mm 2 mps 711 mmHg 55%
21:00 +24°C° 0 mm 1 mps 711 mmHg 63%
22:00 +23°C° 0 mm 1 mps 711 mmHg 64%
23:00 +23°C° 0 mm 1 mps 710 mmHg 65%

10 July, Friday

Time Temperature Precipitation Wind Pressure Humidity
00:00 +22°C° 0 mm 1 mps 710 mmHg 67%
01:00 +22°C° 0 mm 1 mps 710 mmHg 65%
02:00 +22°C° 0 mm 1 mps 709 mmHg 63%
03:00 +22°C° 0 mm 1 mps 709 mmHg 61%
04:00 +23°C° 0 mm 1 mps 709 mmHg 56%
05:00 +25°C° 0 mm 1 mps 709 mmHg 51%
06:00 +26°C° 0 mm 1 mps 709 mmHg 46%
07:00 +29°C° 0 mm 1 mps 710 mmHg 38%
08:00 +31°C° 0 mm 1 mps 710 mmHg 29%
09:00 +35°C° 0 mm 2 mps 711 mmHg 21%
10:00 +36°C° 0 mm 2 mps 711 mmHg 19%
11:00 +37°C° 0 mm 3 mps 711 mmHg 17%
12:00 +38°C° 0 mm 4 mps 711 mmHg 15%
13:00 +39°C° 0 mm 5 mps 711 mmHg 16%
14:00 +39°C° 0 mm 5 mps 711 mmHg 18%
15:00 +38°C° 0 mm 6 mps 710 mmHg 19%
16:00 +35°C° 0 mm 5 mps 710 mmHg 23%
17:00 +34°C° 0 mm 4 mps 710 mmHg 27%
18:00 +32°C° 0 mm 4 mps 710 mmHg 31%
19:00 +29°C° 0 mm 3 mps 710 mmHg 36%
20:00 +27°C° 0 mm 2 mps 710 mmHg 42%
21:00 +25°C° 0 mm 1 mps 710 mmHg 47%
22:00 +25°C° 0 mm 1 mps 710 mmHg 45%
23:00 +25°C° 0 mm 1 mps 710 mmHg 43%
Show more